sat.trackr.live / text

‹ back to catalog

STARLINK-31634

NORAD 59330 · 2024-057L

PAYLOAD ACTIVE UNKNOWN

§ Identity

Operator
Country
US
Launch date
2024-03-25
Launch site
AFETR
Launch vehicle
Mass (kg)
RCS (m²)

Purposes: comms

External: N2YO · Heavens-Above · Gunter

§ Orbital elements

Epoch: 2026-09-20T03:07:29.504640Z

Period
94.27 min
Inclination
43.0032°
Eccentricity
0.0001122
Mean motion
15.27575501 rev/d
Perigee alt
482.3 km
Apogee alt
483.8 km
Semi-major
6,861.2 km
B*
4.1935e-5
RAAN
169.1960°
Arg perigee
276.5503°
Mean anomaly
83.5221°
Rev number
13,957

§ Raw data

STARLINK-316341 59330U 24057L   26263.13020260  .00000892  00000+0  41935-4 0  99952 59330  43.0032 169.1960 0001122 276.5503  83.5221 15.27575501139574

JSON: /api/v1/satellites/59330 · /tle

For live sub-satellite position, see the globe view (requires WebGL).

§ Visibility from observer

Set your observer location to see the next 7 days of passes ≥ 10°. The values pass through the URL so the page stays shareable.

No JS? Fill the form by hand. The geolocation button needs JavaScript.